Meteo pe oră la Dahadaevka

Astăzi, 23 Aprilie, Vineri

Timp Temperatura Precipitaţii Vânt Presiune Umiditate
00:00 +13°C° 0 mm 5 m/s 766 mmHg 72%
01:00 +13°C° 0 mm 6 m/s 767 mmHg 72%
02:00 +13°C° 0 mm 6 m/s 767 mmHg 73%
03:00 +12°C° 0 mm 7 m/s 767 mmHg 72%
04:00 +12°C° 0 mm 7 m/s 767 mmHg 77%
05:00 +11°C° 0 mm 7 m/s 768 mmHg 81%
06:00 +11°C° 0 mm 8 m/s 768 mmHg 86%
07:00 +11°C° 0.1 mm 8 m/s 769 mmHg 85%
08:00 +11°C° 0.1 mm 8 m/s 769 mmHg 85%
09:00 +11°C° 0.1 mm 8 m/s 769 mmHg 84%
10:00 +12°C° 0 mm 8 m/s 769 mmHg 78%
11:00 +13°C° 0 mm 9 m/s 769 mmHg 73%
12:00 +15°C° 0 mm 9 m/s 769 mmHg 67%
13:00 +16°C° 0 mm 9 m/s 769 mmHg 59%
14:00 +18°C° 0 mm 8 m/s 768 mmHg 52%
15:00 +21°C° 0 mm 7 m/s 768 mmHg 44%
16:00 +20°C° 0 mm 6 m/s 768 mmHg 46%
17:00 +19°C° 0 mm 4 m/s 768 mmHg 48%
18:00 +19°C° 0 mm 3 m/s 768 mmHg 50%
19:00 +17°C° 0 mm 3 m/s 768 mmHg 55%
20:00 +16°C° 0 mm 3 m/s 769 mmHg 60%
21:00 +14°C° 0 mm 3 m/s 769 mmHg 65%
22:00 +13°C° 0 mm 3 m/s 768 mmHg 65%
23:00 +13°C° 0 mm 3 m/s 768 mmHg 66%

Mâine, 24 Aprilie, Sâmbătă

Timp Temperatura Precipitaţii Vânt Presiune Umiditate
00:00 +13°C° 0 mm 3 m/s 767 mmHg 66%
01:00 +13°C° 0 mm 4 m/s 767 mmHg 66%
02:00 +13°C° 0 mm 4 m/s 766 mmHg 66%
03:00 +13°C° 0 mm 4 m/s 766 mmHg 66%
04:00 +13°C° 0 mm 4 m/s 766 mmHg 67%
05:00 +13°C° 0 mm 4 m/s 766 mmHg 68%
06:00 +13°C° 0 mm 4 m/s 766 mmHg 69%
07:00 +14°C° 0 mm 5 m/s 765 mmHg 64%
08:00 +16°C° 0 mm 6 m/s 765 mmHg 58%
09:00 +17°C° 0 mm 7 m/s 765 mmHg 53%
10:00 +18°C° 0 mm 7 m/s 765 mmHg 52%
11:00 +18°C° 0 mm 7 m/s 765 mmHg 51%
12:00 +19°C° 0 mm 6 m/s 765 mmHg 50%
13:00 +19°C° 0 mm 6 m/s 765 mmHg 50%
14:00 +19°C° 0 mm 6 m/s 765 mmHg 50%
15:00 +19°C° 0 mm 6 m/s 765 mmHg 51%
16:00 +17°C° 0 mm 5 m/s 766 mmHg 55%
17:00 +17°C° 0 mm 4 m/s 766 mmHg 58%
18:00 +15°C° 0 mm 4 m/s 767 mmHg 62%
19:00 +14°C° 0 mm 3 m/s 767 mmHg 65%
20:00 +14°C° 0 mm 3 m/s 767 mmHg 67%
21:00 +13°C° 0 mm 3 m/s 767 mmHg 70%
22:00 +13°C° 0 mm 3 m/s 767 mmHg 69%
23:00 +13°C° 0 mm 3 m/s 767 mmHg 69%

Poimâine, 25 Aprilie, Duminică

Timp Temperatura Precipitaţii Vânt Presiune Umiditate
00:00 +13°C° 0 mm 3 m/s 767 mmHg 68%
01:00 +14°C° 0 mm 2 m/s 767 mmHg 69%
02:00 +14°C° 0 mm 2 m/s 767 mmHg 69%
03:00 +14°C° 0 mm 1 m/s 767 mmHg 69%
04:00 +14°C° 0 mm 1 m/s 767 mmHg 70%
05:00 +14°C° 0 mm 1 m/s 767 mmHg 71%
06:00 +14°C° 0 mm 1 m/s 768 mmHg 71%
07:00 +15°C° 0 mm 1 m/s 768 mmHg 66%
08:00 +16°C° 0 mm 1 m/s 767 mmHg 61%
09:00 +17°C° 0 mm 2 m/s 767 mmHg 55%
10:00 +18°C° 0 mm 2 m/s 767 mmHg 52%
11:00 +19°C° 0 mm 3 m/s 766 mmHg 48%
12:00 +20°C° 0 mm 4 m/s 766 mmHg 45%
13:00 +19°C° 0 mm 4 m/s 766 mmHg 45%
14:00 +19°C° 0 mm 4 m/s 765 mmHg 46%
15:00 +19°C° 0 mm 5 m/s 765 mmHg 46%
16:00 +18°C° 0 mm 4 m/s 765 mmHg 50%
17:00 +17°C° 0 mm 4 m/s 764 mmHg 53%
18:00 +16°C° 0 mm 3 m/s 764 mmHg 57%
19:00 +14°C° 0 mm 3 m/s 764 mmHg 62%
20:00 +15°C° 0 mm 2 m/s 763 mmHg 67%
21:00 +14°C° 0 mm 2 m/s 763 mmHg 72%
22:00 +13°C° 0 mm 2 m/s 762 mmHg 74%
23:00 +13°C° 0 mm 2 m/s 761 mmHg 76%

26 Aprilie, Luni

Timp Temperatura Precipitaţii Vânt Presiune Umiditate
00:00 +13°C° 0 mm 1 m/s 760 mmHg 78%
01:00 +13°C° 0 mm 2 m/s 760 mmHg 79%
02:00 +12°C° 0 mm 3 m/s 760 mmHg 80%
03:00 +11°C° 0 mm 4 m/s 760 mmHg 80%
04:00 +11°C° 0 mm 4 m/s 760 mmHg 80%
05:00 +10°C° 0 mm 5 m/s 761 mmHg 81%
06:00 +10°C° 0 mm 5 m/s 761 mmHg 81%
07:00 +13°C° 0 mm 5 m/s 760 mmHg 76%
08:00 +14°C° 0 mm 5 m/s 760 mmHg 71%
09:00 +15°C° 0 mm 5 m/s 760 mmHg 65%
10:00 +17°C° 0 mm 4 m/s 759 mmHg 61%
11:00 +19°C° 0 mm 4 m/s 759 mmHg 57%
12:00 +20°C° 0 mm 3 m/s 758 mmHg 52%
13:00 +20°C° 0 mm 3 m/s 758 mmHg 52%
14:00 +21°C° 0 mm 4 m/s 758 mmHg 52%
15:00 +21°C° 0 mm 4 m/s 758 mmHg 52%
16:00 +20°C° 0 mm 4 m/s 758 mmHg 55%
17:00 +19°C° 0 mm 4 m/s 758 mmHg 57%
18:00 +18°C° 0 mm 3 m/s 758 mmHg 60%
19:00 +18°C° 0 mm 4 m/s 758 mmHg 62%
20:00 +17°C° 0 mm 4 m/s 759 mmHg 63%
21:00 +15°C° 0 mm 4 m/s 759 mmHg 65%
22:00 +15°C° 0 mm 6 m/s 760 mmHg 68%
23:00 +15°C° 0 mm 7 m/s 760 mmHg 70%

27 Aprilie, Marţi

Timp Temperatura Precipitaţii Vânt Presiune Umiditate
00:00 +13°C° 0 mm 8 m/s 761 mmHg 72%
01:00 +14°C° 0.1 mm 7 m/s 761 mmHg 78%
02:00 +12°C° 0.1 mm 7 m/s 762 mmHg 84%
03:00 +11°C° 0.1 mm 6 m/s 762 mmHg 90%
04:00 +11°C° 0.2 mm 6 m/s 763 mmHg 88%
05:00 +11°C° 0.2 mm 6 m/s 763 mmHg 85%
06:00 +11°C° 0.2 mm 6 m/s 764 mmHg 83%
07:00 +11°C° 0.2 mm 6 m/s 764 mmHg 84%
08:00 +12°C° 0.2 mm 5 m/s 764 mmHg 85%
09:00 +12°C° 0.2 mm 5 m/s 765 mmHg 86%
10:00 +12°C° 0.1 mm 5 m/s 765 mmHg 86%
11:00 +12°C° 0.1 mm 5 m/s 765 mmHg 85%
12:00 +12°C° 0.1 mm 5 m/s 765 mmHg 85%
13:00 +12°C° 0.5 mm 4 m/s 765 mmHg 84%
14:00 +12°C° 0.5 mm 3 m/s 765 mmHg 84%
15:00 +13°C° 0.5 mm 2 m/s 764 mmHg 84%
16:00 +13°C° 0 mm 2 m/s 764 mmHg 83%
17:00 +14°C° 0 mm 2 m/s 765 mmHg 81%
18:00 +14°C° 0 mm 1 m/s 765 mmHg 79%
19:00 +14°C° 0 mm 1 m/s 765 mmHg 81%
20:00 +13°C° 0 mm 1 m/s 765 mmHg 83%
21:00 +13°C° 0 mm 1 m/s 766 mmHg 86%
22:00 +12°C° 0 mm 1 m/s 765 mmHg 86%
23:00 +12°C° 0 mm 1 m/s 765 mmHg 87%

28 Aprilie, Miercuri

Timp Temperatura Precipitaţii Vânt Presiune Umiditate
00:00 +12°C° 0 mm 1 m/s 765 mmHg 88%
01:00 +12°C° 0 mm 2 m/s 765 mmHg 88%
02:00 +12°C° 0 mm 2 m/s 765 mmHg 88%
03:00 +12°C° 0 mm 2 m/s 766 mmHg 88%
04:00 +12°C° 0 mm 2 m/s 766 mmHg 87%
05:00 +11°C° 0 mm 3 m/s 767 mmHg 86%
06:00 +12°C° 0 mm 3 m/s 768 mmHg 85%
07:00 +12°C° 0 mm 3 m/s 768 mmHg 82%
08:00 +13°C° 0 mm 3 m/s 768 mmHg 79%
09:00 +13°C° 0 mm 3 m/s 768 mmHg 77%
10:00 +14°C° 0 mm 3 m/s 768 mmHg 72%
11:00 +16°C° 0 mm 3 m/s 768 mmHg 66%
12:00 +16°C° 0 mm 3 m/s 769 mmHg 61%
13:00 +17°C° 0 mm 3 m/s 768 mmHg 60%
14:00 +17°C° 0 mm 4 m/s 768 mmHg 59%
15:00 +17°C° 0 mm 4 m/s 768 mmHg 57%
16:00 +15°C° 0 mm 4 m/s 768 mmHg 60%
17:00 +15°C° 0 mm 5 m/s 768 mmHg 63%
18:00 +14°C° 0 mm 5 m/s 768 mmHg 65%
19:00 +13°C° 0 mm 5 m/s 768 mmHg 69%
20:00 +12°C° 0 mm 5 m/s 768 mmHg 74%
21:00 +12°C° 0 mm 5 m/s 768 mmHg 78%
22:00 +10°C° 0 mm 5 m/s 768 mmHg 80%
23:00 +10°C° 0 mm 6 m/s 767 mmHg 81%
Arată mai mult

Formular de consimțământ

Meteoprog și furnizorii noștri de servicii pot stoca și accesa date personale, precum cookies, identificatori de dispozitiv sau alte tehnologii similare pe dispozitivul dumneavoastră și procesa astfel de date pentru a personaliza conținutul și reclamele, dar și pentru a oferi caracteristici de social media și pentru a analiza traficul.

  • Stocarea și/sau accesarea informațiilor pe dispozitivul dumneavoastră

    Cookies, identificatori de dispozitiv sau alte informații pot fi stocate sau accesate pe dispozitiv în scopurile indicate mai sus.

  • Reclame și conținut personalizat, evaluarea reclamelor și a conținutului, informații despre audiențe și dezvoltarea produselor

    Reclamele și conținutul pot fi personalizate pe baza unui profil. Pot fi adăugate date suplimentare pentru a personaliza mai bine reclamele și conținutul. Performanța reclamelor și conținutului poate fi măsurată. Pot fi obținute informații despre utilizatorii care au văzut reclamele și conținutul. Aceste date pot fi utilizate pentru a dezvolta sau îmbunătăți experiența utilizatorilor, sistemele și software-ul.

Dând clic pe ‘Sunt de acord’, permiteți utilizarea cookie-urilor menționate, a identificatorilor de dispozitiv, balizelor web sau altor tehnologii similare. Setările pot fi modificate din browser-ul dispozitivului dumneavoastră.

În anumite scopuri, interesele legitime pot prima asupra consimțământului. Puteți citi mai multe informații în acest sens în Politica privind Confidențialitatea Datelor și Cookie.